Weather Roundup
Issued by NWS

Home | Current Version | Previous Version | Text Only | Print | Product List | Glossary On
Versions: 1 2 3 4 5 6 7 8 9 10 11 12 13 14 15 16 17 18 19 20 21 22 23 24 25 26 27 28 29 30 31 32 33 34 35 36 37 38 39 40 41 42 43 44 45 46 47 48 49 50
844
NZUS93 KARX 291410
HRRWXR

CURRENT HOURLY OBSERVATIONS ACROSS
MUCH OF THE UPPER MISSISSIPPI VALLEY
NATIONAL WEATHER SERVICE LA CROSSE WI
900 AM CDT THU SEP 29 2016


...SOUTHEAST MINNESOTA...


CITY           SKY/WX    TMP DP  RH WIND       PRES   REMARKS
ROCHESTER      CLOUDY    50  50 100 N9        30.43R
ROCHESTER/MAYO CLOUDY    49  49 100 N6        30.44R
WINONA         CLOUDY    54  50  87 NW10      30.42S
AUSTIN         PTSUNNY   52  48  87 N6        30.43R
ALBERT LEA     CLOUDY    54  52  94 NE5       30.44R
DODGE CENTER   FOG       48  48 100 N7        30.44R VSB 1/2
PRESTON        CLOUDY    49  47  95 N8        30.42R
OWATONNA       FOG       48  48 100 N6        30.45R VSB 3/4
FARIBAULT      FOG       48  48 100 N3        30.45S VSB 1/2
$$

...ELSEWHERE IN MINNESOTA...


CITY           SKY/WX    TMP DP  RH WIND       PRES   REMARKS
MINNEAPOLIS    MOSUNNY   52  48  86 E5        30.47R
INTNL FALLS    CLOUDY    53  49  86 CALM      30.52R
DULUTH         CLOUDY    54  51  90 E8        30.50R
RED WING       CLOUDY    50  48  93 CALM      30.45R
REDWOOD FALLS  SUNNY     51  46  83 NE5       30.48R
MANKATO        CLOUDY    48  48 100 NE8       30.46R FOG
WORTHINGTON    MOSUNNY   49  47  93 NE6       30.47R
FAIRMONT       FOG       48  48 100 E6        30.46R VSB 1/4
$$

...SOUTHWEST WISCONSIN...


CITY           SKY/WX    TMP DP  RH WIND       PRES   REMARKS
LA CROSSE      MOSUNNY   55  51  86 N8        30.40R
PRAIRIE DU CHI SUNNY     56  49  78 NW5       30.36R
BOSCOBEL       SUNNY     57  51  80 NE7       30.35S
LONE ROCK      SUNNY     57  50  77 N12G17    30.35R
PLATTEVILLE    SUNNY     55  53  92 N13G20    30.31S
FORT MC COY    SUNNY     51  49  92 CALM      30.40R
CAMP DOUGLAS   SUNNY     54  50  87 VRB6      30.38R
MAUSTON-NEW LI SUNNY     53  50  90 NW5       30.37R
VIROQUA        FAIR      53  50  90 N9        30.37R
WIS DELLS      SUNNY     53  49  85 N5        30.34S
$$

...ELSEWHERE IN WISCONSIN...


CITY           SKY/WX    TMP DP  RH WIND       PRES   REMARKS
MILWAUKEE      MOSUNNY   63  57  81 N18G31    30.24R
MADISON        CLOUDY    54  51  90 N15       30.31R
GREEN BAY      CLOUDY    57  55  93 N16G22    30.35R
EAU CLAIRE     MOSUNNY   53  49  86 NE9       30.44R
BLACK RVR FLS  FAIR      53  51  93 N5        30.40S
MEDFORD        CLOUDY    49  49 100 N10       30.42S
WAUSAU         SUNNY     52  48  86 N7        30.40R
WIS RAPIDS     SUNNY     56  50  80 NE10      30.39R
MARSHFIELD     SUNNY     54  47  77 N10       30.40R
RICE LAKE      PTSUNNY   54  50  86 N7        30.48R
$$

...NORTHEAST IOWA...


CITY           SKY/WX    TMP DP  RH WIND       PRES   REMARKS
WATERLOO       SUNNY     55  50  83 N9        30.36S
DUBUQUE        SUNNY     54  50  86 N14       30.31S
DECORAH        SUNNY     54  52  94 N5        30.38R
MASON CITY     CLOUDY    53  51  93 N9        30.44R
CHARLES CITY   SUNNY     54  52  94 N8G15     30.40S
OELWEIN        SUNNY     54  52  94 N10       30.37R
$$

...ELSEWHERE IN IOWA...


CITY           SKY/WX    TMP DP  RH WIND       PRES   REMARKS
DES MOINES     MOSUNNY   56  51  84 N10       30.38R
IOWA CITY      SUNNY     57  50  77 N13       30.32R
FORT DODGE     CLOUDY    46  45  93 NE6       30.43S VSB 1/4
MARSHALLTOWN   SUNNY     54  52  93 N13       30.37R
CEDAR RAPIDS   SUNNY     56  52  86 N14       30.32R
$$

...NORTHERN ILLINOIS...


CITY           SKY/WX    TMP DP  RH WIND       PRES   REMARKS
CHICAGO-OHARE  CLOUDY    63  57  81 N18G26    30.15R
CHICAGO-MIDWAY CLOUDY    65  57  75 NE18G26   30.13R
MOLINE         CLOUDY    56  50  80 N8        30.26R
ROCKFORD       PTSUNNY   60  53  77 N14G24    30.25R
PEORIA         CLOUDY    59  55  87 N9G18     30.17S
$$

NOTE: "FAIR" INDICATES FEW OR NO CLOUDS BELOW 12,000 FEET WITH NO
SIGNIFICANT WEATHER AND/OR OBSTRUCTIONS TO VISIBILITY. WIND
SPEEDS ARE IN MILES-PER-HOUR.




USA.gov is the U.S. government's official web portal to all federal, state and local government web resources and services.